This is the latest recevied weather packets stored in our database for station/object W7PLC. If no packets are shown the sender has not sent any weather packets the latest 10 day(s).
| Time | Temp. | Humidity | Pressure | Rain* | Wind** | Luminosity | Snow |
|---|---|---|---|---|---|---|---|
| 1778026588 | 20° C | 66% | 1013.4 hPa | 0 mm | - | 289 W/m² | - |
| 1778026285 | 20.56° C | 66% | 1013.7 hPa | 0 mm | - | 311 W/m² | - |
| 1778025983 | 20° C | 68% | 1013.5 hPa | 0 mm | - | 378 W/m² | - |
| 1778025680 | 20° C | 66% | 1013.5 hPa | 0 mm | - | 340 W/m² | - |
| 1778025378 | 20° C | 66% | 1013.7 hPa | 0 mm | - | 400 W/m² | - |
| 1778025075 | 19.44° C | 69% | 1013.7 hPa | 0 mm | - | 428 W/m² | - |
| 1778024772 | 20° C | 69% | 1013.6 hPa | 0 mm | - | 490 W/m² | - |
| 1778024468 | 19.44° C | 69% | 1013.6 hPa | 0 mm | - | 382 W/m² | - |
| 1778024166 | 19.44° C | 70% | 1013.9 hPa | 0 mm | - | 203 W/m² | - |
| 1778023863 | 18.89° C | 71% | 1013.9 hPa | 0 mm | - | 372 W/m² | - |
| 1778023561 | 18.89° C | 72% | 1013.9 hPa | 0 mm | - | 220 W/m² | - |
| 1778023258 | 18.89° C | 73% | 1013.8 hPa | 0 mm | - | 180 W/m² | - |
| 1778022954 | 18.33° C | 73% | 1014 hPa | 0 mm | - | 175 W/m² | - |
| 1778022653 | 18.33° C | 73% | 1014.1 hPa | 0 mm | - | 166 W/m² | - |
| 1778022351 | 18.33° C | 74% | 1014.1 hPa | 0 mm | - | 168 W/m² | - |
| 1778022047 | 17.78° C | 75% | 1014.4 hPa | 0 mm | - | 193 W/m² | - |
| 1778021744 | 17.22° C | 76% | 1014.4 hPa | 0 mm | - | 124 W/m² | - |
| 1778021440 | 17.78° C | 76% | 1014.4 hPa | 0 mm | - | 117 W/m² | - |
| 1778021137 | 17.22° C | 77% | 1014.6 hPa | 0 mm | - | 120 W/m² | - |
| 1778020835 | 17.22° C | 76% | 1014.2 hPa | 0 mm | - | 119 W/m² | - |
| 1778020531 | 17.22° C | 77% | 1014.6 hPa | 0 mm | - | 114 W/m² | - |
| 1778020227 | 17.22° C | 77% | 1014.7 hPa | 0 mm | - | 111 W/m² | - |
| 1778019924 | 17.22° C | 77% | 1014.4 hPa | 0 mm | - | 111 W/m² | - |
| 1778019620 | 17.22° C | 77% | 1014.6 hPa | 0 mm | - | 108 W/m² | - |
| 1778019318 | 17.22° C | 78% | 1014.6 hPa | 0 mm | - | 99 W/m² | - |
* Rain latest hour (hover to see other rain measurements)
** Current wind speed in m/s (hover to see current wind gust speed)